Imperial, NE

10:50 PM MST on February 11, 2016 (GMT -0700)
Imperial Municipal

Weather History for KIML - October, 2011

Change the Weather History Date:

Sunday, October 9, 2011

  Actual Average Record
Temperature  
Mean Temperature 49 °F 54 °F  
Max Temperature 55 °F 68 °F 90 °F (2003)
Min Temperature 43 °F 39 °F 20 °F (2000)
Degree Days  
Heating Degree Days 16 12  
Month to date heating degree days 33 89  
Cooling Degree Days 0 0  
Month to date cooling degree days 17 3  
Year to date cooling degree days 1096 960  
Moisture  
Dew Point 44 °F    
Average Humidity 81    
Maximum Humidity 96    
Minimum Humidity 66    
Precipitation  
Precipitation 0.00 in 0.05 in 0.42 in (2006)
Sea Level Pressure  
Sea Level Pressure 30.05 in    
Wind  
Wind Speed 4 mph (WNW)    
Max Wind Speed 14 mph    
Max Gust Speed 17 mph    
Visibility 10 miles    
Events      
T = Trace of Precipitation, MM = Missing Value Source: NWS Daily Summary

Daily Weather History Graph

Daily Weather History Graph

Search for Another Location

Airport or City:

Trip Planner

Search our weather history database for the weather conditions in past years. The results will help you decide how hot, cold, wet, or windy it might be!

Date:

Astronomy

Oct. 09, 2011 Rise Set
Actual Time 6:50 AM MDT 6:16 PM MDT
Civil Twilight 6:23 AM MDT 6:43 PM MDT
Nautical Twilight 5:51 AM MDT 7:14 PM MDT
Astronomical Twilight 5:20 AM MDT 7:46 PM MDT
Moon 4:54 PM MDT (10/9) 4:37 AM MDT (10/9)
Length of Visible Light 12h 19m
Length of Day
11h 25m
Waxing Gibbous, 95% of the Moon is Illuminated
Oct 9
Waxing Gibbous
Oct 11
Full
Oct 19
Last Quarter
Oct 26
New
Nov 2
First Quarter

Hourly Weather History & Observations

Time (MDT) Temp. Windchill Dew Point Humidity Pressure Visibility Wind Dir Wind Speed Gust Speed Precip Events Conditions
12:53 AM 43.0 °F 39.5 °F 41.0 °F 93% 30.04 in 10.0 mi SE 5.8 mph - N/A   Clear
1:53 AM 43.0 °F 39.5 °F 41.0 °F 93% 30.04 in 10.0 mi ENE 5.8 mph - N/A   Partly Cloudy
2:08 AM 42.8 °F 41.1 °F 41.0 °F 93% 30.05 in 10.0 mi ENE 3.5 mph - N/A   Mostly Cloudy
2:53 AM 45.0 °F - 42.1 °F 90% 30.04 in 10.0 mi Calm Calm - N/A   Overcast
3:34 AM 44.6 °F 43.1 °F 42.8 °F 93% 30.06 in 10.0 mi North 3.5 mph - N/A   Overcast
3:53 AM 44.1 °F 41.5 °F 42.1 °F 93% 30.05 in 10.0 mi NNE 4.6 mph - N/A   Overcast
4:53 AM 45.0 °F 41.8 °F 42.1 °F 90% 30.06 in 10.0 mi North 5.8 mph - N/A   Overcast
5:53 AM 45.0 °F - 42.1 °F 90% 30.06 in 10.0 mi Calm Calm - N/A   Overcast
6:53 AM 45.0 °F - 43.0 °F 93% 30.06 in 10.0 mi Calm Calm - N/A   Overcast
7:53 AM 46.0 °F 43.1 °F 43.0 °F 89% 30.10 in 10.0 mi SW 5.8 mph - N/A   Overcast
8:53 AM 46.9 °F - 43.0 °F 86% 30.10 in 10.0 mi Calm Calm - N/A   Overcast
9:17 AM 46.4 °F 45.2 °F 42.8 °F 87% 30.08 in 10.0 mi WNW 3.5 mph - N/A   Overcast
9:53 AM 48.0 °F - 44.1 °F 86% 30.09 in 10.0 mi Calm Calm - N/A   Overcast
10:53 AM 48.9 °F - 44.1 °F 83% 30.08 in 10.0 mi West 3.5 mph - N/A   Overcast
11:53 AM 51.1 °F - 45.0 °F 80% 30.07 in 10.0 mi Calm Calm - N/A   Overcast
12:53 PM 53.1 °F - 44.1 °F 71% 30.04 in 10.0 mi Calm Calm - N/A   Mostly Cloudy
1:53 PM 54.0 °F - 44.1 °F 69% 30.02 in 10.0 mi SW 3.5 mph - N/A   Overcast
2:53 PM 55.0 °F - 44.1 °F 67% 30.00 in 10.0 mi Variable 3.5 mph - N/A   Mostly Cloudy
3:27 PM 55.4 °F - 44.6 °F 67% 30.00 in 10.0 mi West 5.8 mph - N/A   Overcast
3:53 PM 55.0 °F - 44.1 °F 67% 30.00 in 10.0 mi NW 4.6 mph - N/A   Mostly Cloudy
4:53 PM 55.0 °F - 44.1 °F 67% 30.01 in 10.0 mi West 4.6 mph - N/A   Scattered Clouds
5:30 PM 55.4 °F - 44.6 °F 67% 30.01 in 10.0 mi WNW 4.6 mph - N/A   Overcast
5:53 PM 54.0 °F - 46.9 °F 77% 30.02 in 10.0 mi WNW 9.2 mph - N/A   Overcast
6:11 PM 53.6 °F - 46.4 °F 77% 30.02 in 10.0 mi WNW 9.2 mph - N/A   Overcast
6:44 PM 51.8 °F - 46.4 °F 82% 30.03 in 10.0 mi West 9.2 mph - N/A   Overcast
6:53 PM 52.0 °F - 46.0 °F 80% 30.04 in 10.0 mi West 10.4 mph - N/A   Overcast
7:27 PM 51.8 °F - 46.4 °F 82% 30.04 in 10.0 mi WNW 9.2 mph - N/A   Overcast
7:53 PM 50.0 °F - 45.0 °F 83% 30.05 in 10.0 mi WNW 8.1 mph - N/A   Mostly Cloudy
8:30 PM 48.2 °F - 44.6 °F 87% 30.05 in 10.0 mi West 6.9 mph - N/A   Mostly Cloudy
8:53 PM 50.0 °F - 45.0 °F 83% 30.06 in 10.0 mi West 6.9 mph - N/A   Overcast
9:53 PM 48.9 °F - 44.1 °F 83% 30.07 in 10.0 mi West 5.8 mph - N/A   Overcast
10:53 PM 48.2 °F - 44.6 °F 87% 30.07 in 10.0 mi West 8.1 mph - N/A   Overcast
11:53 PM 48.9 °F - 41.0 °F 74% 30.06 in 10.0 mi West 5.8 mph - N/A   Mostly Cloudy